Retour au catalogue

STARLINK-6366

ActifCommunicationsVLEO
NORAD 57380·PAYLOAD·🇺🇸 United States

Lancé Jul 16, 2023 depuis Cape Canaveral Space Force Station

Loading…

Prochains Passages (prochaines 24 heures)

TLE

FraisSource: CelesTrak SupGP

Époque: Sep 14, 2026, 22:38 UTC

1 57380C 23099BE  26257.94354167  .00004476  00000+0  16213-3 0  2570
2 57380  43.0030 223.6983 0001392 262.4421 337.7990 15.27572031    16

Suivez STARLINK-6366 en temps réel avec AllMySat

Download on the App Store